Regional Weather Roundup
Issued by NWS

Home | Current Version | Previous Version | Text Only | Print | Product List | Glossary On
Versions: 1 2 3 4 5 6 7 8 9 10 11 12 13 14 15 16 17 18 19 20 21 22 23 24 25 26 27
000
ASUS44 KLIX 270713
RWRLA
LOUISIANA WEATHER ROUNDUP
NATIONAL WEATHER SERVICE NEW ORLEANS LA
100 AM CST MON FEB 27 2017

NOTE: "FAIR" INDICATES FEW OR NO CLOUDS BELOW 12,000 FEET WITH NO
      SIGNIFICANT WEATHER AND/OR OBSTRUCTIONS TO VISIBILITY.
      SKY/WX - SKY CONDITION AND SIGNIFICANT WEATHER.
      TMP - AIR TEMPERATURE.    DP   - DEWPOINT TEMPERATURE.
      RH  - RELATIVE HUMIDITY.  PRES - PRESSURE.
      HX  - HEAT INDEX.         WCI  - WIND CHILL INDEX.

*  THESE STATIONS ARE NOT NWS OR FAA STATIONS AND ARE NOT UNDER
   NWS QUALITY CONTROL.

LAZ040-048-061>063-065-066-069-270800-
SOUTHEAST LOUISIANA

CITY           SKY/WX    TMP DP  RH WIND       PRES   REMARKS
N.O. AUDUBON   NOT AVBL
N.O. INTL ARPT MOCLDY    66  60  81 SE15      30.06F
N.O. LAKEFRONT CLOUDY    66  61  84 SE14      30.07F
N.O. DOWNTOWN*   N/A     67  60  78 VRB5      30.08S
RESERVE*       CLOUDY    67  61  81 SE8       30.05F
SLIDELL        CLOUDY    65  59  81 SE10      30.07F
BATON ROUGE    CLOUDY    62  56  80 NE5       30.05S
BOOTHVILLE     MOCLDY    63  61  93 SE8       30.10F
BELLE CHASSE   CLOUDY    66  61  84 SE13      30.07S
BOGALUSA*      FAIR      52  48  86 N3        30.10S
GALLIANO*      CLOUDY    68  62  80 SE9       30.06S
NEW ROADS*     LGT RAIN  60  55  84 SE3       30.04F
GONZALES*      CLOUDY    65  59  80 SE6       30.04S
HAMMOND*       CLOUDY    57  52  82 NE3       30.06F
HOUMA*         CLOUDY    67  64  88 SE7       30.05F
PORT FOURCHON* NOT AVBL

$$

LAZ041-044-053-054-270800-
SOUTHWEST LOUISIANA

CITY           SKY/WX    TMP DP  RH WIND       PRES   REMARKS
LAKE CHARLES   PTCLDY    64  62  93 SE14      29.98F
LAFAYETTE      CLOUDY    67  59  75 SE5       30.03S
PATTERSON      MOCLDY    66  63  90 SE12      30.03S
SALT POINT       N/A     66  63  90 SE10      30.01F
NEW IBERIA     LGT RAIN  65  59  81 SE5       30.03S
CHENAULT AIRPK CLOUDY    63  61  93 SE6       29.99S

$$

LAZ027-028-270800-
CENTRAL LOUISIANA

CITY           SKY/WX    TMP DP  RH WIND       PRES   REMARKS
FORT POLK      CLOUDY    64  59  85 SE14      29.98R
ALEXANDRIA INT CLOUDY    60  54  80 SE12      29.99F
ALEXANDRIA     CLOUDY    60  54  80 SE8       30.00F

$$

LAZ001-002-270800-
NORTHWEST LOUISIANA

CITY           SKY/WX    TMP DP  RH WIND       PRES   REMARKS
SHREVEPORT     CLOUDY    66  59  78 S10       29.95R
BARKSDALE AFB  CLOUDY    64  58  80 S14       29.95S
DTN SHREVEPORT CLOUDY    66  58  75 S10       29.96R

$$

LAZ014-016-270800-
NORTHEAST LOUISIANA

CITY           SKY/WX    TMP DP  RH WIND       PRES   REMARKS
MONROE         CLOUDY    59  51  75 S8        30.00S
TALLULAH       PTCLDY    58  49  72 S13       30.03S

$$





USA.gov is the U.S. government's official web portal to all federal, state and local government web resources and services.